| time (UTC) | temp C | wind direction | speed KPH | gust KPH | rain 1hr cm | rain 24hr cm | rain mn cm | humidity % | barometer mb |
| 20260509051527 | 1 | 274 | 0.0 | 0.0 | 0.00 | 0.00 | 0.00 | 84 | 1011.4 |
| 20260509051024 | 1 | 274 | 0.0 | 0.0 | 0.00 | 0.00 | 0.00 | 84 | 1011.5 |
| 20260509050520 | 2 | 274 | 0.0 | 0.0 | 0.00 | 0.00 | 0.00 | 83 | 1011.4 |
| 20260509050011 | 2 | 274 | 0.0 | 0.0 | 0.00 | 0.00 | 0.00 | 83 | 1011.4 |
| 20260509045509 | 2 | 274 | 0.0 | 0.0 | 0.00 | 0.00 | 0.00 | 82 | 1011.2 |
| 20260509045006 | 2 | 274 | 0.0 | 0.0 | 0.00 | 0.00 | 0.00 | 82 | 1011.6 |
| 20260509044504 | 2 | 274 | 0.0 | 0.0 | 0.00 | 0.00 | 0.00 | 82 | 1011.7 |
| 20260509044000 | 2 | 274 | 0.0 | 0.0 | 0.00 | 0.00 | 0.00 | 82 | 1011.6 |
| 20260509043456 | 2 | 274 | 0.0 | 0.0 | 0.00 | 0.00 | 0.00 | 81 | 1011.5 |
| 20260509042952 | 2 | 274 | 0.0 | 0.0 | 0.00 | 0.00 | 0.00 | 81 | 1011.5 |
| 20260509042449 | 2 | 274 | 0.0 | 0.0 | 0.00 | 0.00 | 0.00 | 81 | 1011.3 |
| 20260509041945 | 2 | 274 | 0.0 | 0.0 | 0.00 | 0.00 | 0.00 | 81 | 1011.7 |
| 20260509041442 | 2 | 274 | 0.0 | 0.0 | 0.00 | 0.00 | 0.00 | 80 | 1011.4 |
| 20260509040940 | 2 | 274 | 0.0 | 0.0 | 0.00 | 0.00 | 0.00 | 80 | 1011.2 |
| 20260509040438 | 2 | 274 | 0.0 | 0.0 | 0.00 | 0.00 | 0.00 | 80 | 1011.3 |
| 20260509035934 | 2 | 274 | 0.0 | 0.0 | 0.00 | 0.00 | 0.00 | 80 | 1010.9 |
| 20260509035431 | 2 | 274 | 0.0 | 0.0 | 0.00 | 0.00 | 0.00 | 80 | 1011.2 |
| 20260509034928 | 2 | 274 | 0.0 | 0.0 | 0.00 | 0.00 | 0.00 | 80 | 1011.2 |
| 20260509034426 | 2 | 274 | 0.0 | 0.0 | 0.00 | 0.00 | 0.00 | 80 | 1011.1 |
| 20260509033922 | 2 | 274 | 0.0 | 0.0 | 0.00 | 0.00 | 0.00 | 80 | 1010.9 |
| 20260509033419 | 2 | 274 | 0.0 | 0.0 | 0.00 | 0.00 | 0.00 | 80 | 1011.1 |
| 20260509032916 | 2 | 274 | 0.0 | 0.0 | 0.00 | 0.00 | 0.00 | 79 | 1010.6 |
| 20260509032414 | 2 | 274 | 0.0 | 1.6 | 0.00 | 0.00 | 0.00 | 79 | 1010.7 |
| 20260509031911 | 2 | 274 | 0.0 | 0.0 | 0.00 | 0.00 | 0.00 | 78 | 1010.7 |
| 20260509031409 | 2 | 274 | 0.0 | 0.0 | 0.00 | 0.00 | 0.00 | 78 | 1010.6 |
| 20260509030906 | 2 | 274 | 0.0 | 0.0 | 0.00 | 0.00 | 0.00 | 78 | 1010.6 |
| 20260509030404 | 2 | 274 | 0.0 | 0.0 | 0.00 | 0.00 | 0.00 | 78 | 1010.4 |
| 20260509025901 | 2 | 274 | 0.0 | 0.0 | 0.00 | 0.00 | 0.00 | 77 | 1010.4 |
| 20260509025356 | 2 | 274 | 0.0 | 0.0 | 0.00 | 0.00 | 0.00 | 77 | 1010.3 |
| 20260509024851 | 2 | 274 | 0.0 | 0.0 | 0.00 | 0.00 | 0.00 | 78 | 1010.6 |
| 20260509024347 | 2 | 274 | 0.0 | 0.0 | 0.00 | 0.00 | 0.00 | 78 | 1010.5 |
| 20260509023845 | 2 | 274 | 0.0 | 0.0 | 0.00 | 0.00 | 0.00 | 77 | 1010.5 |
| 20260509023342 | 2 | 274 | 0.0 | 0.0 | 0.00 | 0.00 | 0.00 | 77 | 1010.2 |
| 20260509022838 | 2 | 274 | 0.0 | 0.0 | 0.00 | 0.00 | 0.00 | 77 | 1010.2 |
| 20260509022336 | 2 | 274 | 0.0 | 0.0 | 0.00 | 0.00 | 0.00 | 76 | 1010.4 |
| 20260509021832 | 2 | 274 | 0.0 | 0.0 | 0.00 | 0.00 | 0.00 | 76 | 1010.1 |
| 20260509021324 | 2 | 274 | 0.0 | 0.0 | 0.00 | 0.00 | 0.00 | 76 | 1010.0 |
| 20260509020822 | 2 | 274 | 0.0 | 0.0 | 0.00 | 0.00 | 0.00 | 75 | 1009.9 |
| 20260509020320 | 2 | 274 | 0.0 | 0.0 | 0.00 | 0.00 | 0.00 | 76 | 1009.9 |
| 20260509015817 | 2 | 274 | 0.0 | 0.0 | 0.00 | 0.00 | 0.00 | 75 | 1009.7 |
| 20260509015315 | 2 | 274 | 0.0 | 0.0 | 0.00 | 0.00 | 0.00 | 75 | 1009.6 |
| 20260509014811 | 2 | 274 | 0.0 | 0.0 | 0.00 | 0.00 | 0.00 | 73 | 1009.6 |
| 20260509014308 | 2 | 274 | 0.0 | 0.0 | 0.00 | 0.00 | 0.00 | 73 | 1009.5 |
| 20260509013804 | 2 | 274 | 0.0 | 0.0 | 0.00 | 0.00 | 0.00 | 73 | 1009.4 |
| 20260509013300 | 2 | 274 | 0.0 | 0.0 | 0.00 | 0.00 | 0.00 | 73 | 1009.6 |
| 20260509012756 | 2 | 274 | 0.0 | 0.0 | 0.00 | 0.00 | 0.00 | 71 | 1009.5 |
| 20260509012254 | 3 | 274 | 0.0 | 0.0 | 0.00 | 0.00 | 0.00 | 71 | 1009.2 |
| 20260509011751 | 3 | 274 | 0.0 | 0.0 | 0.00 | 0.00 | 0.00 | 70 | 1009.3 |
| 20260509011249 | 3 | 274 | 0.0 | 0.0 | 0.00 | 0.00 | 0.00 | 68 | 1009.3 |
| 20260509010746 | 3 | 274 | 0.0 | 0.0 | 0.00 | 0.00 | 0.00 | 67 | 1009.0 |
| 20260509010242 | 3 | 274 | 0.0 | 0.0 | 0.00 | 0.00 | 0.00 | 67 | 1009.0 |
| 20260509005740 | 3 | 274 | 0.0 | 0.0 | 0.00 | 0.00 | 0.00 | 66 | 1008.8 |
| 20260509005237 | 3 | 274 | 0.0 | 0.0 | 0.00 | 0.00 | 0.00 | 65 | 1008.9 |
| 20260509004732 | 4 | 274 | 0.0 | 0.0 | 0.00 | 0.00 | 0.00 | 65 | 1008.9 |
| 20260509004229 | 4 | 274 | 0.0 | 0.0 | 0.00 | 0.00 | 0.00 | 64 | 1008.6 |
| 20260509003727 | 4 | 274 | 0.0 | 0.0 | 0.00 | 0.00 | 0.00 | 65 | 1008.6 |
| 20260509003225 | 4 | 274 | 0.0 | 0.0 | 0.00 | 0.00 | 0.00 | 64 | 1008.5 |
| 20260509002722 | 5 | 274 | 0.0 | 0.0 | 0.00 | 0.00 | 0.00 | 63 | 1008.6 |
| 20260509002219 | 5 | 274 | 0.0 | 0.0 | 0.00 | 0.00 | 0.00 | 62 | 1008.3 |
| 20260509001711 | 5 | 274 | 0.0 | 0.0 | 0.00 | 0.00 | 0.00 | 62 | 1008.4 |
| 20260509001206 | 5 | 274 | 0.0 | 0.0 | 0.00 | 0.00 | 0.00 | 60 | 1008.3 |
| 20260509000704 | 5 | 274 | 0.0 | 0.0 | 0.00 | 0.00 | 0.00 | 59 | 1008.3 |
| 20260509000156 | 6 | 274 | 0.0 | 0.0 | 0.00 | 0.00 | 0.00 | 59 | 1008.2 |
| 20260508235653 | 6 | 274 | 0.0 | 0.0 | 0.00 | 0.00 | 0.00 | 57 | 1008.2 |
| 20260508235149 | 6 | 274 | 0.0 | 0.0 | 0.00 | 0.00 | 0.00 | 57 | 1007.9 |
| 20260508234646 | 6 | 274 | 0.0 | 0.0 | 0.00 | 0.00 | 0.00 | 55 | 1007.9 |
| 20260508234142 | 6 | 274 | 0.0 | 0.0 | 0.00 | 0.00 | 0.00 | 55 | 1008.0 |
| 20260508233637 | 7 | 274 | 0.0 | 0.0 | 0.00 | 0.00 | 0.00 | 54 | 1007.9 |
| 20260508233134 | 7 | 274 | 0.0 | 0.0 | 0.00 | 0.00 | 0.00 | 52 | 1007.9 |
| 20260508232631 | 8 | 274 | 0.0 | 0.0 | 0.00 | 0.00 | 0.00 | 53 | 1007.9 |
| 20260508232128 | 8 | 274 | 0.0 | 0.0 | 0.00 | 0.00 | 0.00 | 50 | 1007.8 |
| 20260508231625 | 9 | 274 | 0.0 | 0.0 | 0.00 | 0.00 | 0.00 | 46 | 1007.7 |
| 20260508231123 | 10 | 274 | 0.0 | 3.2 | 0.00 | 0.00 | 0.00 | 40 | 1007.6 |
| 20260508230618 | 10 | 274 | 0.0 | 0.0 | 0.00 | 0.00 | 0.00 | 43 | 1007.7 |
| 20260508230115 | 10 | 274 | 0.0 | 1.6 | 0.00 | 0.00 | 0.00 | 37 | 1007.6 |
| 20260508225613 | 10 | 274 | 0.0 | 3.2 | 0.00 | 0.00 | 0.00 | 36 | 1007.6 |
| 20260508225109 | 10 | 274 | 1.6 | 1.6 | 0.00 | 0.00 | 0.00 | 42 | 1007.6 |
| 20260508224607 | 10 | 274 | 0.0 | 1.6 | 0.00 | 0.00 | 0.00 | 42 | 1007.4 |
| 20260508224104 | 10 | 274 | 0.0 | 0.0 | 0.00 | 0.00 | 0.00 | 37 | 1007.5 |
| 20260508223602 | 10 | 274 | 0.0 | 1.6 | 0.00 | 0.00 | 0.00 | 36 | 1007.3 |
| 20260508223059 | 11 | 274 | 3.2 | 4.8 | 0.00 | 0.00 | 0.00 | 34 | 1007.4 |
| 20260508222556 | 11 | 274 | 0.0 | 0.0 | 0.00 | 0.00 | 0.00 | 35 | 1007.2 |
| 20260508222053 | 10 | 274 | 3.2 | 3.2 | 0.00 | 0.00 | 0.00 | 35 | 1007.3 |
| 20260508221549 | 10 | 274 | 0.0 | 0.0 | 0.00 | 0.00 | 0.00 | 35 | 1007.4 |
| 20260508221045 | 11 | 274 | 1.6 | 4.8 | 0.00 | 0.00 | 0.00 | 35 | 1007.4 |
| 20260508220542 | 11 | 274 | 0.0 | 0.0 | 0.00 | 0.00 | 0.00 | 39 | 1007.3 |
| 20260508220038 | 11 | 274 | 0.0 | 1.6 | 0.00 | 0.00 | 0.00 | 35 | 1007.2 |
| 20260508215535 | 11 | 274 | 0.0 | 3.2 | 0.00 | 0.00 | 0.00 | 34 | 1007.0 |
| 20260508215032 | 11 | 274 | 0.0 | 0.0 | 0.00 | 0.00 | 0.00 | 34 | 1007.1 |
| 20260508214530 | 11 | 274 | 0.0 | 0.0 | 0.00 | 0.00 | 0.00 | 35 | 1007.2 |
| 20260508214026 | 11 | 274 | 0.0 | 0.0 | 0.00 | 0.00 | 0.00 | 34 | 1007.1 |
| 20260508213523 | 11 | 274 | 1.6 | 4.8 | 0.00 | 0.00 | 0.00 | 33 | 1006.8 |
| 20260508213019 | 11 | 274 | 4.8 | 9.7 | 0.00 | 0.00 | 0.00 | 33 | 1006.9 |
| 20260508212516 | 11 | 274 | 1.6 | 4.8 | 0.00 | 0.00 | 0.00 | 35 | 1007.0 |
| 20260508212012 | 12 | 274 | 1.6 | 9.7 | 0.00 | 0.00 | 0.00 | 35 | 1007.1 |
| 20260508211508 | 11 | 274 | 0.0 | 3.2 | 0.00 | 0.00 | 0.00 | 36 | 1007.0 |
| 20260508211004 | 11 | 274 | 0.0 | 0.0 | 0.00 | 0.00 | 0.00 | 35 | 1006.9 |
| 20260508210501 | 11 | 274 | 0.0 | 3.2 | 0.00 | 0.00 | 0.00 | 36 | 1006.8 |
| 20260508205957 | 11 | 274 | 1.6 | 6.4 | 0.00 | 0.00 | 0.00 | 35 | 1006.8 |
| 20260508205454 | 11 | 274 | 3.2 | 4.8 | 0.00 | 0.00 | 0.00 | 37 | 1007.0 |
| 20260508204951 | 10 | 274 | 3.2 | 3.2 | 0.00 | 0.00 | 0.00 | 37 | 1006.8 |
| 20260508204448 | 10 | 274 | 1.6 | 3.2 | 0.00 | 0.00 | 0.00 | 39 | 1007.0 |
| 20260508203943 | 10 | 274 | 0.0 | 4.8 | 0.00 | 0.00 | 0.00 | 39 | 1006.9 |
| 20260508203440 | 11 | 274 | 3.2 | 9.7 | 0.00 | 0.00 | 0.00 | 39 | 1006.7 |
| 20260508202936 | 11 | 274 | 0.0 | 6.4 | 0.00 | 0.00 | 0.00 | 39 | 1006.8 |
| 20260508202433 | 11 | 274 | 1.6 | 9.7 | 0.00 | 0.00 | 0.00 | 39 | 1006.9 |
| 20260508201930 | 11 | 274 | 1.6 | 6.4 | 0.00 | 0.00 | 0.00 | 38 | 1006.9 |
| 20260508201427 | 10 | 274 | 0.0 | 1.6 | 0.00 | 0.00 | 0.00 | 41 | 1006.6 |
| 20260508200924 | 10 | 274 | 1.6 | 1.6 | 0.00 | 0.00 | 0.00 | 41 | 1006.5 |
| 20260508200421 | 10 | 274 | 0.0 | 3.2 | 0.00 | 0.00 | 0.00 | 41 | 1006.4 |
| 20260508195916 | 10 | 274 | 0.0 | 6.4 | 0.00 | 0.00 | 0.00 | 42 | 1006.6 |
| 20260508195413 | 10 | 274 | 0.0 | 3.2 | 0.00 | 0.00 | 0.00 | 40 | 1006.5 |
| 20260508194908 | 10 | 274 | 4.8 | 4.8 | 0.00 | 0.00 | 0.00 | 41 | 1006.4 |
| 20260508194406 | 11 | 274 | 1.6 | 6.4 | 0.00 | 0.00 | 0.00 | 40 | 1006.4 |
| 20260508193857 | 11 | 274 | 0.0 | 4.8 | 0.00 | 0.00 | 0.00 | 38 | 1006.3 |
| 20260508193354 | 11 | 274 | 1.6 | 3.2 | 0.00 | 0.00 | 0.00 | 38 | 1006.4 |
| 20260508192850 | 11 | 274 | 1.6 | 11.3 | 0.00 | 0.00 | 0.00 | 39 | 1006.3 |
| 20260508192347 | 11 | 274 | 0.0 | 0.0 | 0.00 | 0.00 | 0.00 | 38 | 1006.1 |
| 20260508191844 | 11 | 274 | 0.0 | 1.6 | 0.00 | 0.00 | 0.00 | 38 | 1006.1 |
| 20260508191342 | 11 | 274 | 0.0 | 3.2 | 0.00 | 0.00 | 0.00 | 39 | 1006.2 |
| 20260508190839 | 11 | 274 | 0.0 | 4.8 | 0.00 | 0.00 | 0.00 | 40 | 1006.1 |
| 20260508190335 | 11 | 274 | 3.2 | 9.7 | 0.00 | 0.00 | 0.00 | 39 | 1006.1 |
| 20260508185831 | 11 | 274 | 3.2 | 4.8 | 0.00 | 0.00 | 0.00 | 38 | 1006.1 |
| 20260508185329 | 11 | 274 | 0.0 | 6.4 | 0.00 | 0.00 | 0.00 | 38 | 1005.9 |
| 20260508184826 | 11 | 274 | 0.0 | 3.2 | 0.00 | 0.00 | 0.00 | 37 | 1006.0 |
| 20260508184323 | 11 | 274 | 1.6 | 4.8 | 0.00 | 0.00 | 0.00 | 36 | 1005.8 |
| 20260508183820 | 11 | 274 | 3.2 | 4.8 | 0.00 | 0.00 | 0.00 | 35 | 1005.9 |
| 20260508183316 | 11 | 274 | 1.6 | 6.4 | 0.00 | 0.00 | 0.00 | 35 | 1005.8 |
| 20260508182812 | 11 | 274 | 0.0 | 3.2 | 0.00 | 0.00 | 0.00 | 36 | 1006.0 |
| 20260508182309 | 11 | 274 | 1.6 | 11.3 | 0.00 | 0.00 | 0.00 | 36 | 1005.8 |
| 20260508181759 | 11 | 274 | 3.2 | 6.4 | 0.00 | 0.00 | 0.00 | 35 | 1005.8 |
| 20260508181256 | 11 | 274 | 1.6 | 6.4 | 0.00 | 0.00 | 0.00 | 36 | 1005.9 |
| 20260508180753 | 11 | 274 | 1.6 | 9.7 | 0.00 | 0.00 | 0.00 | 36 | 1005.7 |
| 20260508180250 | 11 | 274 | 3.2 | 4.8 | 0.00 | 0.00 | 0.00 | 36 | 1005.8 |
| 20260508175746 | 11 | 274 | 1.6 | 6.4 | 0.00 | 0.00 | 0.00 | 37 | 1005.6 |
| 20260508175243 | 11 | 274 | 1.6 | 6.4 | 0.00 | 0.00 | 0.00 | 36 | 1005.7 |
| 20260508174741 | 12 | 274 | 4.8 | 6.4 | 0.00 | 0.00 | 0.00 | 36 | 1005.8 |
| 20260508174238 | 12 | 274 | 0.0 | 11.3 | 0.00 | 0.00 | 0.00 | 39 | 1005.7 |
| 20260508173734 | 11 | 274 | 0.0 | 1.6 | 0.00 | 0.00 | 0.00 | 38 | 1005.7 |
| 20260508173230 | 11 | 274 | 0.0 | 9.7 | 0.00 | 0.00 | 0.00 | 38 | 1005.9 |
| 20260508172727 | 11 | 274 | 1.6 | 6.4 | 0.00 | 0.00 | 0.00 | 37 | 1005.8 |
| 20260508172224 | 12 | 274 | 0.0 | 9.7 | 0.00 | 0.00 | 0.00 | 37 | 1005.7 |
| 20260508171720 | 12 | 274 | 3.2 | 6.4 | 0.00 | 0.00 | 0.00 | 35 | 1005.7 |
| 20260508171217 | 13 | 274 | 3.2 | 4.8 | 0.00 | 0.00 | 0.00 | 35 | 1005.6 |
| 20260508170714 | 11 | 274 | 1.6 | 4.8 | 0.00 | 0.00 | 0.00 | 37 | 1005.6 |
| 20260508170212 | 12 | 274 | 3.2 | 6.4 | 0.00 | 0.00 | 0.00 | 36 | 1005.6 |
| 20260508165708 | 11 | 274 | 1.6 | 11.3 | 0.00 | 0.00 | 0.00 | 39 | 1005.7 |
| 20260508165206 | 11 | 274 | 1.6 | 4.8 | 0.00 | 0.00 | 0.00 | 39 | 1005.7 |
| 20260508164702 | 11 | 274 | 0.0 | 0.0 | 0.00 | 0.00 | 0.00 | 42 | 1005.7 |
| 20260508164158 | 11 | 274 | 0.0 | 3.2 | 0.00 | 0.00 | 0.00 | 42 | 1005.8 |
| 20260508163656 | 10 | 274 | 0.0 | 1.6 | 0.00 | 0.00 | 0.00 | 42 | 1005.9 |
| 20260508163153 | 10 | 274 | 0.0 | 1.6 | 0.00 | 0.00 | 0.00 | 41 | 1005.9 |
| 20260508162649 | 10 | 274 | 4.8 | 4.8 | 0.00 | 0.00 | 0.00 | 42 | 1006.0 |
| 20260508162146 | 10 | 274 | 1.6 | 4.8 | 0.00 | 0.00 | 0.00 | 41 | 1005.9 |
| 20260508161643 | 11 | 274 | 1.6 | 4.8 | 0.00 | 0.00 | 0.00 | 41 | 1005.7 |
| 20260508161142 | 11 | 274 | 0.0 | 1.6 | 0.00 | 0.00 | 0.00 | 43 | 1005.9 |
| 20260508160639 | 11 | 274 | 0.0 | 3.2 | 0.00 | 0.00 | 0.00 | 41 | 1005.8 |
| 20260508160137 | 10 | 274 | 0.0 | 0.0 | 0.00 | 0.00 | 0.00 | 42 | 1006.0 |
| 20260508155633 | 10 | 274 | 0.0 | 3.2 | 0.00 | 0.00 | 0.00 | 41 | 1005.7 |
| 20260508155130 | 10 | 274 | 0.0 | 4.8 | 0.00 | 0.00 | 0.00 | 45 | 1005.8 |
| 20260508154627 | 10 | 274 | 0.0 | 3.2 | 0.00 | 0.00 | 0.00 | 44 | 1006.0 |
| 20260508154123 | 10 | 274 | 1.6 | 4.8 | 0.00 | 0.00 | 0.00 | 42 | 1006.0 |
| 20260508153620 | 10 | 274 | 0.0 | 1.6 | 0.00 | 0.00 | 0.00 | 43 | 1005.9 |
| 20260508153117 | 10 | 274 | 0.0 | 3.2 | 0.00 | 0.00 | 0.00 | 40 | 1005.9 |
| 20260508152609 | 10 | 274 | 0.0 | 0.0 | 0.00 | 0.00 | 0.00 | 42 | 1006.0 |
| 20260508152104 | 10 | 274 | 0.0 | 3.2 | 0.00 | 0.00 | 0.00 | 42 | 1006.0 |
| 20260508151601 | 10 | 274 | 0.0 | 0.0 | 0.00 | 0.00 | 0.00 | 38 | 1006.0 |
| 20260508151058 | 10 | 274 | 0.0 | 0.0 | 0.00 | 0.00 | 0.00 | 39 | 1006.1 |
| 20260508150555 | 10 | 274 | 0.0 | 4.8 | 0.00 | 0.00 | 0.00 | 39 | 1006.1 |
| 20260508150051 | 10 | 274 | 1.6 | 4.8 | 0.00 | 0.00 | 0.00 | 38 | 1006.1 |
| 20260508145548 | 11 | 274 | 0.0 | 6.4 | 0.00 | 0.00 | 0.00 | 37 | 1006.2 |
| 20260508145044 | 10 | 274 | 0.0 | 3.2 | 0.00 | 0.00 | 0.00 | 35 | 1006.2 |
| 20260508144542 | 10 | 274 | 0.0 | 1.6 | 0.00 | 0.00 | 0.00 | 36 | 1006.0 |
| 20260508144039 | 11 | 274 | 0.0 | 3.2 | 0.00 | 0.00 | 0.00 | 33 | 1006.0 |
| 20260508143537 | 12 | 274 | 0.0 | 0.0 | 0.00 | 0.00 | 0.00 | 33 | 1006.0 |
| 20260508143033 | 11 | 274 | 0.0 | 6.4 | 0.00 | 0.00 | 0.00 | 35 | 1005.9 |
| 20260508142530 | 12 | 274 | 6.4 | 11.3 | 0.00 | 0.00 | 0.00 | 31 | 1005.8 |
| 20260508142026 | 12 | 274 | 3.2 | 14.5 | 0.00 | 0.00 | 0.00 | 30 | 1006.2 |
| 20260508141523 | 12 | 274 | 0.0 | 6.4 | 0.00 | 0.00 | 0.00 | 31 | 1006.1 |
| 20260508141021 | 11 | 274 | 3.2 | 3.2 | 0.00 | 0.00 | 0.00 | 36 | 1005.9 |
| 20260508140518 | 11 | 274 | 3.2 | 11.3 | 0.00 | 0.00 | 0.00 | 33 | 1006.2 |
| 20260508140014 | 11 | 274 | 4.8 | 6.4 | 0.00 | 0.00 | 0.00 | 34 | 1006.4 |
| 20260508135510 | 11 | 274 | 1.6 | 3.2 | 0.00 | 0.00 | 0.00 | 36 | 1006.4 |
| 20260508135006 | 11 | 274 | 4.8 | 9.7 | 0.00 | 0.00 | 0.00 | 36 | 1006.3 |
| 20260508134503 | 11 | 274 | 1.6 | 11.3 | 0.00 | 0.00 | 0.00 | 36 | 1006.5 |
| 20260508134000 | 11 | 274 | 0.0 | 0.0 | 0.00 | 0.00 | 0.00 | 35 | 1006.5 |
| 20260508133457 | 11 | 274 | 0.0 | 1.6 | 0.00 | 0.00 | 0.00 | 37 | 1006.6 |
| 20260508132954 | 11 | 274 | 0.0 | 3.2 | 0.00 | 0.00 | 0.00 | 37 | 1006.4 |
| 20260508132452 | 10 | 274 | 1.6 | 4.8 | 0.00 | 0.00 | 0.00 | 40 | 1006.6 |
| 20260508131948 | 10 | 274 | 4.8 | 9.7 | 0.00 | 0.00 | 0.00 | 41 | 1006.5 |
| 20260508131444 | 10 | 274 | 0.0 | 1.6 | 0.00 | 0.00 | 0.00 | 44 | 1006.4 |
| 20260508130941 | 10 | 274 | 3.2 | 4.8 | 0.00 | 0.00 | 0.00 | 41 | 1006.6 |
| 20260508130438 | 9 | 274 | 1.6 | 3.2 | 0.00 | 0.00 | 0.00 | 43 | 1006.7 |
| 20260508125933 | 9 | 274 | 0.0 | 4.8 | 0.00 | 0.00 | 0.00 | 43 | 1006.7 |
| 20260508125430 | 10 | 274 | 4.8 | 9.7 | 0.00 | 0.00 | 0.00 | 43 | 1006.9 |
| 20260508124928 | 8 | 274 | 0.0 | 0.0 | 0.00 | 0.00 | 0.00 | 44 | 1006.6 |
| 20260508124425 | 9 | 274 | 3.2 | 4.8 | 0.00 | 0.00 | 0.00 | 43 | 1006.8 |
| 20260508123923 | 9 | 274 | 0.0 | 0.0 | 0.00 | 0.00 | 0.00 | 45 | 1006.8 |
| 20260508123421 | 10 | 274 | 0.0 | 4.8 | 0.00 | 0.00 | 0.00 | 43 | 1006.7 |
| 20260508122917 | 10 | 274 | 0.0 | 3.2 | 0.00 | 0.00 | 0.00 | 43 | 1006.9 |
| 20260508122414 | 9 | 274 | 0.0 | 0.0 | 0.00 | 0.00 | 0.00 | 47 | 1006.8 |
| 20260508121911 | 8 | 274 | 1.6 | 3.2 | 0.00 | 0.00 | 0.00 | 45 | 1006.8 |
| 20260508121410 | 8 | 274 | 1.6 | 4.8 | 0.00 | 0.00 | 0.00 | 45 | 1006.6 |
| 20260508120907 | 8 | 274 | 1.6 | 4.8 | 0.00 | 0.00 | 0.00 | 46 | 1006.7 |
| 20260508120405 | 9 | 274 | 1.6 | 4.8 | 0.00 | 0.00 | 0.00 | 45 | 1006.7 |
| 20260508115902 | 8 | 274 | 1.6 | 3.2 | 0.00 | 0.00 | 0.00 | 48 | 1006.7 |
| 20260508115400 | 8 | 274 | 0.0 | 0.0 | 0.00 | 0.00 | 0.00 | 51 | 1006.9 |
| 20260508114855 | 7 | 274 | 0.0 | 0.0 | 0.00 | 0.00 | 0.00 | 54 | 1006.6 |
| 20260508114353 | 7 | 274 | 0.0 | 1.6 | 0.00 | 0.00 | 0.00 | 59 | 1006.7 |
| 20260508113849 | 6 | 274 | 0.0 | 0.0 | 0.00 | 0.00 | 0.00 | 61 | 1006.7 |
| 20260508113348 | 6 | 274 | 1.6 | 1.6 | 0.00 | 0.00 | 0.00 | 66 | 1006.7 |
| 20260508112844 | 6 | 274 | 0.0 | 0.0 | 0.00 | 0.00 | 0.00 | 70 | 1006.5 |
| 20260508112341 | 5 | 274 | 0.0 | 0.0 | 0.00 | 0.00 | 0.00 | 72 | 1006.6 |
| 20260508111837 | 4 | 274 | 0.0 | 0.0 | 0.00 | 0.00 | 0.00 | 75 | 1006.5 |
| 20260508111335 | 4 | 274 | 0.0 | 0.0 | 0.00 | 0.00 | 0.00 | 77 | 1006.6 |
| 20260508110832 | 3 | 274 | 0.0 | 0.0 | 0.00 | 0.00 | 0.00 | 77 | 1006.5 |
| 20260508110329 | 3 | 274 | 0.0 | 0.0 | 0.00 | 0.00 | 0.00 | 78 | 1006.6 |
| 20260508105829 | 2 | 274 | 0.0 | 0.0 | 0.00 | 0.00 | 0.00 | 83 | 1006.4 |
| 20260508105326 | 2 | 274 | 0.0 | 0.0 | 0.00 | 0.00 | 0.00 | 87 | 1006.4 |
| 20260508104823 | 1 | 274 | 0.0 | 0.0 | 0.00 | 0.00 | 0.00 | 88 | 1006.5 |
| 20260508104320 | 1 | 274 | 0.0 | 0.0 | 0.00 | 0.00 | 0.00 | 89 | 1006.5 |
| 20260508103817 | 1 | 274 | 0.0 | 0.0 | 0.00 | 0.00 | 0.00 | 90 | 1006.6 |
| 20260508103314 | 0 | 274 | 0.0 | 0.0 | 0.00 | 0.00 | 0.00 | 91 | 1006.3 |
| 20260508102812 | 0 | 274 | 0.0 | 0.0 | 0.00 | 0.00 | 0.00 | 91 | 1006.2 |
| 20260508102309 | 0 | 274 | 0.0 | 0.0 | 0.00 | 0.00 | 0.00 | 91 | 1006.2 |
| 20260508101806 | 0 | 274 | 0.0 | 0.0 | 0.00 | 0.00 | 0.00 | 91 | 1006.3 |
| 20260508101304 | 0 | 274 | 0.0 | 1.6 | 0.00 | 0.00 | 0.00 | 91 | 1006.2 |
| 20260508100801 | 0 | 274 | 0.0 | 0.0 | 0.00 | 0.00 | 0.00 | 91 | 1006.0 |
| 20260508100300 | 0 | 274 | 0.0 | 1.6 | 0.00 | 0.00 | 0.00 | 91 | 1006.1 |
| 20260508095755 | 0 | 274 | 0.0 | 0.0 | 0.00 | 0.00 | 0.00 | 91 | 1006.1 |
| 20260508095253 | -1 | 274 | 0.0 | 0.0 | 0.00 | 0.00 | 0.00 | 91 | 1006.1 |
| 20260508094749 | -1 | 274 | 0.0 | 0.0 | 0.00 | 0.00 | 0.00 | 91 | 1005.8 |
| 20260508094247 | -1 | 274 | 0.0 | 0.0 | 0.00 | 0.00 | 0.00 | 91 | 1005.8 |
| 20260508093743 | -1 | 274 | 0.0 | 1.6 | 0.00 | 0.00 | 0.00 | 91 | 1005.9 |
| 20260508093241 | -1 | 274 | 0.0 | 0.0 | 0.00 | 0.00 | 0.00 | 90 | 1005.7 |
| 20260508092738 | -1 | 274 | 0.0 | 0.0 | 0.00 | 0.00 | 0.00 | 90 | 1005.8 |
| 20260508092236 | -1 | 274 | 0.0 | 1.6 | 0.00 | 0.00 | 0.00 | 90 | 1005.7 |
| 20260508091734 | -1 | 274 | 0.0 | 1.6 | 0.00 | 0.00 | 0.00 | 90 | 1005.6 |
| 20260508091230 | -1 | 274 | 0.0 | 0.0 | 0.00 | 0.00 | 0.00 | 90 | 1005.5 |
| 20260508090728 | -1 | 274 | 0.0 | 0.0 | 0.00 | 0.00 | 0.00 | 90 | 1005.2 |
| 20260508090226 | -1 | 274 | 0.0 | 0.0 | 0.00 | 0.00 | 0.00 | 90 | 1005.3 |
| 20260508085721 | 0 | 274 | 0.0 | 0.0 | 0.00 | 0.00 | 0.00 | 90 | 1005.4 |
| 20260508085219 | 0 | 274 | 0.0 | 0.0 | 0.00 | 0.00 | 0.00 | 90 | 1005.2 |
| 20260508084715 | 0 | 274 | 0.0 | 0.0 | 0.00 | 0.00 | 0.00 | 89 | 1005.1 |
| 20260508084213 | 0 | 274 | 0.0 | 0.0 | 0.00 | 0.00 | 0.00 | 89 | 1005.1 |
| 20260508083710 | 0 | 274 | 0.0 | 0.0 | 0.00 | 0.00 | 0.00 | 89 | 1005.3 |
| 20260508083207 | 0 | 274 | 0.0 | 0.0 | 0.00 | 0.00 | 0.00 | 88 | 1005.0 |
| 20260508082702 | 0 | 274 | 0.0 | 0.0 | 0.00 | 0.00 | 0.00 | 88 | 1005.1 |
| 20260508082200 | 0 | 274 | 0.0 | 0.0 | 0.00 | 0.00 | 0.00 | 87 | 1005.2 |
| 20260508081657 | 0 | 274 | 0.0 | 0.0 | 0.00 | 0.00 | 0.00 | 88 | 1005.2 |
| 20260508081153 | 0 | 274 | 0.0 | 0.0 | 0.00 | 0.00 | 0.00 | 88 | 1005.2 |
| 20260508080651 | 0 | 274 | 0.0 | 0.0 | 0.00 | 0.00 | 0.00 | 88 | 1005.1 |
| 20260508080149 | 0 | 274 | 0.0 | 0.0 | 0.00 | 0.00 | 0.00 | 88 | 1005.3 |
| 20260508075645 | 0 | 274 | 0.0 | 0.0 | 0.00 | 0.00 | 0.00 | 88 | 1005.0 |
| 20260508075142 | 0 | 274 | 0.0 | 0.0 | 0.00 | 0.00 | 0.00 | 87 | 1005.0 |
| 20260508074640 | 0 | 274 | 0.0 | 0.0 | 0.00 | 0.00 | 0.00 | 87 | 1004.9 |
| 20260508074137 | 0 | 274 | 0.0 | 0.0 | 0.00 | 0.00 | 0.00 | 86 | 1005.1 |
| 20260508073634 | 0 | 274 | 0.0 | 0.0 | 0.00 | 0.00 | 0.00 | 86 | 1005.0 |
| 20260508073132 | 0 | 274 | 0.0 | 0.0 | 0.00 | 0.00 | 0.00 | 86 | 1005.1 |
| 20260508072627 | 0 | 274 | 0.0 | 0.0 | 0.00 | 0.00 | 0.00 | 86 | 1004.8 |
| 20260508072124 | 0 | 274 | 0.0 | 0.0 | 0.00 | 0.00 | 0.00 | 85 | 1004.9 |
| 20260508071622 | 0 | 274 | 0.0 | 0.0 | 0.00 | 0.00 | 0.00 | 85 | 1005.0 |
| 20260508071120 | 0 | 274 | 0.0 | 0.0 | 0.00 | 0.00 | 0.00 | 85 | 1005.0 |
| 20260508070617 | 0 | 274 | 0.0 | 0.0 | 0.00 | 0.00 | 0.00 | 84 | 1005.1 |
| 20260508070115 | 0 | 274 | 0.0 | 0.0 | 0.00 | 0.00 | 0.00 | 84 | 1005.1 |
| 20260508065607 | 0 | 274 | 0.0 | 0.0 | 0.00 | 0.00 | 0.00 | 84 | 1005.0 |
| 20260508065104 | 0 | 274 | 0.0 | 0.0 | 0.00 | 0.00 | 0.00 | 83 | 1004.9 |
| 20260508064602 | 0 | 274 | 0.0 | 0.0 | 0.00 | 0.00 | 0.00 | 83 | 1005.2 |
| 20260508064100 | 0 | 274 | 0.0 | 0.0 | 0.00 | 0.00 | 0.00 | 82 | 1005.1 |
| 20260508063557 | 0 | 274 | 0.0 | 0.0 | 0.00 | 0.00 | 0.00 | 81 | 1005.1 |
| 20260508063055 | 0 | 274 | 0.0 | 0.0 | 0.00 | 0.00 | 0.00 | 82 | 1005.0 |
| 20260508062552 | 1 | 274 | 0.0 | 0.0 | 0.00 | 0.00 | 0.00 | 82 | 1005.2 |
| 20260508062048 | 1 | 274 | 0.0 | 0.0 | 0.00 | 0.00 | 0.00 | 83 | 1005.3 |
| 20260508061546 | 1 | 274 | 0.0 | 0.0 | 0.00 | 0.00 | 0.00 | 82 | 1005.4 |
| 20260508061043 | 1 | 274 | 0.0 | 0.0 | 0.00 | 0.00 | 0.00 | 82 | 1005.3 |
| 20260508060540 | 1 | 274 | 0.0 | 0.0 | 0.00 | 0.00 | 0.00 | 81 | 1005.3 |
| 20260508060037 | 1 | 274 | 0.0 | 0.0 | 0.00 | 0.00 | 0.00 | 82 | 1005.5 |
| 20260508055532 | 1 | 274 | 0.0 | 0.0 | 0.00 | 0.00 | 0.00 | 81 | 1005.5 |
| 20260508055030 | 1 | 274 | 0.0 | 0.0 | 0.00 | 0.00 | 0.00 | 82 | 1005.2 |
| 20260508054526 | 1 | 274 | 0.0 | 0.0 | 0.00 | 0.00 | 0.00 | 82 | 1005.4 |
| 20260508054024 | 1 | 274 | 0.0 | 0.0 | 0.00 | 0.00 | 0.00 | 82 | 1005.5 |
| 20260508053520 | 1 | 274 | 0.0 | 0.0 | 0.00 | 0.00 | 0.00 | 81 | 1005.6 |
| 20260508053019 | 1 | 274 | 0.0 | 0.0 | 0.00 | 0.00 | 0.00 | 81 | 1005.6 |
| 20260508052516 | 1 | 274 | 0.0 | 0.0 | 0.00 | 0.00 | 0.00 | 81 | 1005.7 |
| 20260508052012 | 1 | 274 | 0.0 | 0.0 | 0.00 | 0.00 | 0.00 | 81 | 1005.9 |